Location: Newark
(34.3481°N, 134.0494°E)
Time: 15:00:05
(UTC+00:00)

Vanguard 3 - Pass Details

Date: 29 January 2020
Orbit: 508 x 3263 km, 33.3° (Epoch: 22 February)

Event Time Altitude Azimuth Distance (km) Brightness Sun altitude
Rises 06:55:07 0° 238° (WSW) 6,231 13.5 16.3°
Reaches altitude 10° 06:58:48 10° 236° (SW) 5,490 14.4 15.7°
Maximum altitude 07:16:47 70° 157° (SSE) 3,393 10.5 12.6°
Drops below altitude 10° 07:35:44 10° 79° (E) 5,750 10.9 9.2°
Sets 07:39:42 0° 77° (ENE) 6,526 11.1 8.5°
